sat.trackr.live / text

‹ back to catalog

TIANMU-1 20

NORAD 58661 · 2023-208B

PAYLOAD ACTIVE UNKNOWN

§ Identity

Operator
Country
PRC
Launch date
2023-12-27
Launch site
JSC
Launch vehicle
Mass (kg)
RCS (m²)

Purposes: earth_obs

External: N2YO · Heavens-Above · Gunter

§ Orbital elements

Epoch: 2026-05-25T05:04:29.566848Z

Period
93.97 min
Inclination
97.4417°
Eccentricity
0.0008058
Mean motion
15.32357595 rev/d
Perigee alt
463.3 km
Apogee alt
474.3 km
Semi-major
6,846.9 km
B*
2.4888e-4
RAAN
262.0157°
Arg perigee
55.5185°
Mean anomaly
304.6817°
Rev number
13,390

§ Raw data

TIANMU-1 201 58661U 23208B   26145.21145332  .00007704  00000+0  24888-3 0  99902 58661  97.4417 262.0157 0008058  55.5185 304.6817 15.32357595133903

JSON: /api/v1/satellites/58661 · /tle

For live sub-satellite position, see the globe view (requires WebGL).

§ Visibility from observer

Set your observer location to see the next 7 days of passes ≥ 10°. The values pass through the URL so the page stays shareable.

No JS? Fill the form by hand. The geolocation button needs JavaScript.